| time (UTC) | temp F | wind direction | speed MPH | gust MPH | rain 1hr in | rain 24hr in | rain mn in | humidity % | barometer mb |
| 20260906225009 | 63 | 341 | 11.0 | 14.0 | 0.00 | 0.00 | 0.00 | 82 | 1015.0 |
| 20260906224505 | 62 | 322 | 9.0 | 11.0 | 0.00 | 0.00 | 0.00 | 83 | 1015.0 |
| 20260906224001 | 62 | 324 | 9.0 | 11.0 | 0.00 | 0.00 | 0.00 | 83 | 1015.1 |
| 20260906223457 | 62 | 328 | 11.0 | 11.0 | 0.00 | 0.00 | 0.00 | 83 | 1014.8 |
| 20260906222955 | 62 | 330 | 12.0 | 14.0 | 0.00 | 0.00 | 0.00 | 83 | 1015.0 |
| 20260906222449 | 62 | 341 | 10.0 | 13.0 | 0.00 | 0.00 | 0.00 | 83 | 1015.3 |
| 20260906221947 | 62 | 327 | 11.0 | 14.0 | 0.00 | 0.00 | 0.00 | 84 | 1015.2 |
| 20260906221441 | 61 | 334 | 7.0 | 8.0 | 0.00 | 0.00 | 0.00 | 84 | 1015.0 |
| 20260906220937 | 61 | 0 | 10.0 | 11.0 | 0.00 | 0.00 | 0.00 | 85 | 1015.4 |
| 20260906220431 | 61 | 313 | 7.0 | 8.0 | 0.00 | 0.00 | 0.00 | 84 | 1014.8 |
| 20260906215930 | 61 | 340 | 9.0 | 9.0 | 0.00 | 0.00 | 0.00 | 85 | 1015.0 |
| 20260906215425 | 61 | 358 | 9.0 | 9.0 | 0.00 | 0.00 | 0.00 | 86 | 1015.2 |
| 20260906214924 | 61 | 355 | 9.0 | 10.0 | 0.00 | 0.00 | 0.00 | 85 | 1015.1 |
| 20260906214423 | 61 | 356 | 8.0 | 9.0 | 0.00 | 0.00 | 0.00 | 85 | 1015.0 |
| 20260906213922 | 60 | 359 | 9.0 | 10.0 | 0.00 | 0.00 | 0.00 | 85 | 1015.2 |
| 20260906213417 | 60 | 346 | 7.0 | 8.0 | 0.00 | 0.00 | 0.00 | 87 | 1015.1 |
| 20260906212914 | 60 | 5 | 9.0 | 11.0 | 0.00 | 0.00 | 0.00 | 85 | 1015.2 |
| 20260906212409 | 60 | 2 | 9.0 | 13.0 | 0.00 | 0.00 | 0.00 | 85 | 1015.0 |
| 20260906211904 | 60 | 351 | 10.0 | 11.0 | 0.00 | 0.00 | 0.00 | 85 | 1015.2 |
| 20260906211359 | 60 | 343 | 9.0 | 11.0 | 0.00 | 0.00 | 0.00 | 86 | 1015.2 |
| 20260906210859 | 60 | 354 | 10.0 | 10.0 | 0.00 | 0.00 | 0.00 | 85 | 1015.2 |
| 20260906210354 | 60 | 346 | 9.0 | 10.0 | 0.00 | 0.00 | 0.00 | 85 | 1015.2 |
| 20260906205849 | 60 | 342 | 12.0 | 14.0 | 0.00 | 0.00 | 0.00 | 84 | 1015.3 |
| 20260906205345 | 61 | 346 | 10.0 | 11.0 | 0.00 | 0.00 | 0.00 | 83 | 1015.0 |
| 20260906204841 | 61 | 351 | 9.0 | 11.0 | 0.00 | 0.00 | 0.00 | 83 | 1015.0 |
| 20260906204339 | 60 | 341 | 14.0 | 16.0 | 0.00 | 0.00 | 0.00 | 83 | 1015.1 |
| 20260906203839 | 61 | 352 | 12.0 | 14.0 | 0.00 | 0.00 | 0.00 | 83 | 1015.1 |
| 20260906203335 | 61 | 9 | 12.0 | 14.0 | 0.00 | 0.00 | 0.00 | 83 | 1014.9 |
| 20260906202832 | 61 | 350 | 13.0 | 15.0 | 0.00 | 0.00 | 0.00 | 82 | 1015.0 |
| 20260906202332 | 61 | 312 | 11.0 | 13.0 | 0.00 | 0.00 | 0.00 | 83 | 1015.3 |
| 20260906201831 | 61 | 13 | 12.0 | 15.0 | 0.00 | 0.00 | 0.00 | 83 | 1015.0 |
| 20260906201326 | 60 | 1 | 13.0 | 14.0 | 0.00 | 0.00 | 0.00 | 83 | 1015.0 |
| 20260906200821 | 61 | 315 | 13.0 | 15.0 | 0.00 | 0.00 | 0.00 | 82 | 1015.3 |
| 20260906200317 | 61 | 5 | 14.0 | 16.0 | 0.00 | 0.00 | 0.00 | 82 | 1015.4 |
| 20260906195812 | 61 | 332 | 12.0 | 16.0 | 0.00 | 0.00 | 0.00 | 83 | 1015.2 |
| 20260906195309 | 61 | 18 | 12.0 | 14.0 | 0.00 | 0.00 | 0.00 | 82 | 1015.2 |
| 20260906194804 | 61 | 4 | 13.0 | 15.0 | 0.00 | 0.00 | 0.00 | 83 | 1015.4 |
| 20260906194300 | 62 | 8 | 14.0 | 18.0 | 0.00 | 0.00 | 0.00 | 81 | 1015.2 |
| 20260906193754 | 62 | 12 | 15.0 | 16.0 | 0.00 | 0.00 | 0.00 | 81 | 1015.1 |
| 20260906193249 | 62 | 22 | 10.0 | 11.0 | 0.00 | 0.00 | 0.00 | 81 | 1015.2 |
| 20260906192745 | 62 | 25 | 13.0 | 16.0 | 0.00 | 0.00 | 0.00 | 80 | 1015.3 |
| 20260906192240 | 62 | 17 | 14.0 | 15.0 | 0.00 | 0.00 | 0.00 | 80 | 1015.3 |
| 20260906191739 | 62 | 7 | 14.0 | 16.0 | 0.00 | 0.00 | 0.00 | 81 | 1015.2 |
| 20260906191234 | 61 | 358 | 17.0 | 20.0 | 0.00 | 0.00 | 0.00 | 79 | 1015.1 |
| 20260906190733 | 61 | 9 | 15.0 | 18.0 | 0.00 | 0.00 | 0.00 | 81 | 1015.1 |
| 20260906190228 | 61 | 21 | 13.0 | 15.0 | 0.00 | 0.00 | 0.00 | 80 | 1015.1 |
| 20260906185728 | 60 | 7 | 16.0 | 20.0 | 0.00 | 0.00 | 0.00 | 81 | 1015.1 |
| 20260906185227 | 61 | 14 | 13.0 | 16.0 | 0.00 | 0.00 | 0.00 | 81 | 1015.1 |
| 20260906184727 | 61 | 10 | 15.0 | 20.0 | 0.00 | 0.00 | 0.00 | 80 | 1015.4 |
| 20260906184222 | 60 | 13 | 19.0 | 23.0 | 0.00 | 0.00 | 0.00 | 80 | 1015.6 |
| 20260906183718 | 59 | 4 | 13.0 | 15.0 | 0.00 | 0.00 | 0.00 | 83 | 1015.6 |
| 20260906183214 | 59 | 21 | 14.0 | 16.0 | 0.00 | 0.00 | 0.00 | 83 | 1015.6 |
| 20260906182714 | 59 | 0 | 13.0 | 16.0 | 0.00 | 0.00 | 0.00 | 84 | 1015.9 |
| 20260906182210 | 59 | 14 | 11.0 | 11.0 | 0.00 | 0.00 | 0.00 | 86 | 1015.8 |
| 20260906181705 | 58 | 33 | 17.0 | 18.0 | 0.00 | 0.00 | 0.00 | 86 | 1015.6 |
| 20260906181202 | 58 | 353 | 11.0 | 15.0 | 0.00 | 0.00 | 0.00 | 88 | 1016.0 |
| 20260906180701 | 57 | 27 | 12.0 | 15.0 | 0.00 | 0.00 | 0.00 | 88 | 1015.9 |
| 20260906180156 | 57 | 26 | 15.0 | 16.0 | 0.00 | 0.00 | 0.00 | 88 | 1016.0 |
| 20260906175654 | 57 | 0 | 14.0 | 16.0 | 0.00 | 0.00 | 0.00 | 88 | 1016.5 |
| 20260906175149 | 56 | 357 | 11.0 | 13.0 | 0.00 | 0.00 | 0.00 | 89 | 1016.9 |
| 20260906174648 | 56 | 2 | 13.0 | 15.0 | 0.00 | 0.00 | 0.00 | 90 | 1016.9 |
| 20260906174143 | 56 | 310 | 10.0 | 13.0 | 0.00 | 0.00 | 0.00 | 91 | 1017.0 |
| 20260906173638 | 56 | 358 | 14.0 | 17.0 | 0.00 | 0.00 | 0.00 | 90 | 1017.2 |
| 20260906173134 | 56 | 1 | 13.0 | 15.0 | 0.00 | 0.00 | 0.00 | 90 | 1016.9 |
| 20260906172632 | 56 | 346 | 14.0 | 17.0 | 0.00 | 0.00 | 0.00 | 91 | 1017.2 |
| 20260906172129 | 56 | 352 | 14.0 | 16.0 | 0.00 | 0.00 | 0.00 | 91 | 1017.0 |
| 20260906171628 | 56 | 358 | 14.0 | 16.0 | 0.00 | 0.00 | 0.00 | 92 | 1017.4 |
| 20260906171124 | 56 | 353 | 13.0 | 15.0 | 0.00 | 0.00 | 0.00 | 92 | 1017.3 |
| 20260906170620 | 55 | 343 | 14.0 | 17.0 | 0.00 | 0.00 | 0.00 | 93 | 1017.1 |
| 20260906170119 | 55 | 342 | 10.0 | 14.0 | 0.00 | 0.00 | 0.00 | 93 | 1017.5 |
| 20260906165615 | 55 | 352 | 12.0 | 15.0 | 0.00 | 0.00 | 0.00 | 92 | 1017.3 |
| 20260906165111 | 55 | 354 | 13.0 | 14.0 | 0.00 | 0.00 | 0.00 | 93 | 1017.3 |
| 20260906164609 | 55 | 5 | 13.0 | 15.0 | 0.00 | 0.00 | 0.00 | 94 | 1017.4 |
| 20260906164105 | 55 | 349 | 13.0 | 14.0 | 0.00 | 0.00 | 0.00 | 94 | 1017.1 |
| 20260906163601 | 55 | 355 | 11.0 | 13.0 | 0.00 | 0.00 | 0.00 | 95 | 1017.1 |
| 20260906163056 | 55 | 355 | 13.0 | 17.0 | 0.00 | 0.00 | 0.00 | 95 | 1016.9 |
| 20260906162554 | 55 | 347 | 16.0 | 17.0 | 0.00 | 0.00 | 0.00 | 94 | 1016.7 |
| 20260906162048 | 55 | 353 | 13.0 | 15.0 | 0.00 | 0.00 | 0.00 | 95 | 1017.1 |
| 20260906161543 | 55 | 4 | 13.0 | 15.0 | 0.00 | 0.00 | 0.00 | 94 | 1017.1 |
| 20260906161042 | 55 | 352 | 10.0 | 13.0 | 0.00 | 0.00 | 0.00 | 94 | 1017.5 |
| 20260906160541 | 55 | 323 | 15.0 | 16.0 | 0.00 | 0.00 | 0.00 | 92 | 1017.3 |
| 20260906160040 | 56 | 321 | 13.0 | 16.0 | 0.00 | 0.00 | 0.00 | 91 | 1017.4 |
| 20260906155538 | 56 | 3 | 14.0 | 16.0 | 0.00 | 0.00 | 0.00 | 90 | 1017.2 |
| 20260906155034 | 57 | 358 | 13.0 | 15.0 | 0.00 | 0.00 | 0.00 | 89 | 1017.4 |
| 20260906154530 | 57 | 326 | 13.0 | 16.0 | 0.00 | 0.00 | 0.00 | 87 | 1017.6 |
| 20260906154028 | 58 | 3 | 9.0 | 10.0 | 0.00 | 0.00 | 0.00 | 87 | 1017.6 |
| 20260906153527 | 57 | 324 | 9.0 | 10.0 | 0.00 | 0.00 | 0.00 | 87 | 1017.9 |
| 20260906153023 | 57 | 308 | 12.0 | 14.0 | 0.00 | 0.00 | 0.00 | 89 | 1017.5 |
| 20260906152517 | 56 | 308 | 9.0 | 13.0 | 0.00 | 0.00 | 0.00 | 92 | 1017.6 |
| 20260906152016 | 56 | 317 | 7.0 | 9.0 | 0.00 | 0.00 | 0.00 | 94 | 1017.5 |
| 20260906151511 | 57 | 345 | 17.0 | 20.0 | 0.00 | 0.00 | 0.00 | 93 | 1017.5 |
| 20260906151007 | 57 | 340 | 12.0 | 15.0 | 0.00 | 0.00 | 0.00 | 94 | 1017.9 |
| 20260906150502 | 57 | 330 | 11.0 | 14.0 | 0.00 | 0.00 | 0.00 | 93 | 1017.7 |
| 20260906150001 | 58 | 350 | 6.0 | 7.0 | 0.00 | 0.00 | 0.00 | 93 | 1017.7 |
| 20260906145456 | 58 | 29 | 7.0 | 8.0 | 0.00 | 0.00 | 0.00 | 92 | 1017.5 |
| 20260906144955 | 58 | 345 | 7.0 | 8.0 | 0.00 | 0.00 | 0.00 | 93 | 1017.5 |
| 20260906144450 | 57 | 346 | 8.0 | 9.0 | 0.00 | 0.00 | 0.00 | 94 | 1017.1 |
| 20260906143945 | 57 | 23 | 7.0 | 8.0 | 0.00 | 0.00 | 0.00 | 94 | 1017.3 |
| 20260906143441 | 57 | 334 | 6.0 | 8.0 | 0.00 | 0.00 | 0.00 | 95 | 1017.4 |
| 20260906142936 | 57 | 340 | 6.0 | 7.0 | 0.00 | 0.00 | 0.00 | 95 | 1017.6 |
| 20260906142431 | 57 | 351 | 5.0 | 6.0 | 0.00 | 0.00 | 0.00 | 95 | 1017.6 |
| 20260906141926 | 56 | 22 | 9.0 | 9.0 | 0.00 | 0.00 | 0.00 | 95 | 1017.5 |
| 20260906141425 | 56 | 20 | 6.0 | 8.0 | 0.00 | 0.00 | 0.00 | 95 | 1017.3 |
| 20260906140920 | 57 | 11 | 9.0 | 10.0 | 0.00 | 0.00 | 0.00 | 95 | 1017.6 |
| 20260906140415 | 56 | 21 | 8.0 | 9.0 | 0.00 | 0.00 | 0.00 | 95 | 1017.5 |
| 20260906135913 | 56 | 352 | 9.0 | 10.0 | 0.00 | 0.00 | 0.00 | 96 | 1017.6 |
| 20260906135412 | 56 | 347 | 8.0 | 9.0 | 0.00 | 0.00 | 0.00 | 96 | 1017.5 |
| 20260906134908 | 56 | 358 | 5.0 | 7.0 | 0.00 | 0.00 | 0.00 | 97 | 1017.5 |
| 20260906134403 | 56 | 315 | 6.0 | 7.0 | 0.00 | 0.00 | 0.00 | 96 | 1017.5 |
| 20260906133857 | 56 | 10 | 12.0 | 13.0 | 0.00 | 0.00 | 0.00 | 96 | 1017.5 |
| 20260906133353 | 56 | 0 | 9.0 | 10.0 | 0.00 | 0.00 | 0.00 | 97 | 1017.3 |
| 20260906132849 | 55 | 341 | 7.0 | 9.0 | 0.00 | 0.00 | 0.00 | 97 | 1017.4 |
| 20260906132344 | 55 | 339 | 6.0 | 7.0 | 0.00 | 0.00 | 0.00 | 98 | 1017.5 |
| 20260906131839 | 55 | 331 | 6.0 | 7.0 | 0.00 | 0.00 | 0.00 | 98 | 1017.7 |
| 20260906131334 | 55 | 355 | 6.0 | 7.0 | 0.00 | 0.00 | 0.00 | 98 | 1017.5 |
| 20260906130830 | 55 | 357 | 8.0 | 9.0 | 0.00 | 0.00 | 0.00 | 98 | 1017.7 |
| 20260906130330 | 55 | 354 | 4.0 | 5.0 | 0.00 | 0.00 | 0.00 | 98 | 1017.6 |
| 20260906125829 | 55 | 358 | 6.0 | 6.0 | 0.00 | 0.00 | 0.00 | 98 | 1017.7 |
| 20260906125326 | 54 | 357 | 5.0 | 7.0 | 0.00 | 0.00 | 0.00 | 98 | 1017.6 |
| 20260906124821 | 54 | 12 | 8.0 | 8.0 | 0.00 | 0.00 | 0.00 | 98 | 1017.4 |
| 20260906124317 | 54 | 26 | 7.0 | 8.0 | 0.00 | 0.00 | 0.00 | 98 | 1017.4 |
| 20260906123816 | 54 | 341 | 7.0 | 8.0 | 0.00 | 0.00 | 0.00 | 98 | 1017.9 |
| 20260906123311 | 54 | 351 | 8.0 | 9.0 | 0.00 | 0.00 | 0.00 | 98 | 1017.6 |
| 20260906122811 | 54 | 340 | 9.0 | 10.0 | 0.00 | 0.00 | 0.00 | 98 | 1017.9 |
| 20260906122306 | 54 | 0 | 7.0 | 8.0 | 0.00 | 0.00 | 0.00 | 98 | 1018.0 |
| 20260906121803 | 54 | 349 | 9.0 | 9.0 | 0.00 | 0.00 | 0.00 | 98 | 1017.7 |
| 20260906121300 | 54 | 351 | 8.0 | 10.0 | 0.00 | 0.00 | 0.00 | 98 | 1017.9 |
| 20260906120755 | 54 | 338 | 7.0 | 8.0 | 0.00 | 0.00 | 0.00 | 98 | 1018.1 |
| 20260906120251 | 54 | 334 | 7.0 | 8.0 | 0.00 | 0.00 | 0.00 | 98 | 1018.0 |
| 20260906115747 | 54 | 338 | 7.0 | 8.0 | 0.00 | 0.00 | 0.00 | 98 | 1018.1 |
| 20260906115241 | 54 | 331 | 6.0 | 7.0 | 0.00 | 0.00 | 0.00 | 98 | 1018.2 |
| 20260906114740 | 54 | 354 | 6.0 | 7.0 | 0.00 | 0.00 | 0.00 | 98 | 1018.0 |
| 20260906114236 | 54 | 323 | 8.0 | 9.0 | 0.00 | 0.00 | 0.00 | 98 | 1018.2 |
| 20260906113731 | 54 | 331 | 6.0 | 7.0 | 0.00 | 0.00 | 0.00 | 97 | 1018.2 |
| 20260906113230 | 54 | 342 | 6.0 | 8.0 | 0.00 | 0.00 | 0.00 | 97 | 1017.9 |
| 20260906112724 | 55 | 313 | 6.0 | 7.0 | 0.00 | 0.00 | 0.00 | 97 | 1018.0 |
| 20260906112221 | 55 | 3 | 10.0 | 11.0 | 0.00 | 0.00 | 0.00 | 97 | 1017.6 |
| 20260906111720 | 54 | 358 | 11.0 | 14.0 | 0.00 | 0.00 | 0.00 | 97 | 1017.5 |
| 20260906111215 | 55 | 349 | 10.0 | 10.0 | 0.00 | 0.00 | 0.00 | 97 | 1018.0 |
| 20260906110710 | 55 | 346 | 9.0 | 10.0 | 0.00 | 0.00 | 0.00 | 97 | 1017.9 |
| 20260906110206 | 55 | 355 | 11.0 | 14.0 | 0.00 | 0.00 | 0.00 | 97 | 1017.9 |
| 20260906105700 | 55 | 5 | 11.0 | 11.0 | 0.00 | 0.00 | 0.00 | 97 | 1017.9 |
| 20260906105156 | 55 | 1 | 11.0 | 13.0 | 0.00 | 0.00 | 0.00 | 97 | 1018.1 |
| 20260906104655 | 55 | 351 | 8.0 | 9.0 | 0.00 | 0.00 | 0.00 | 97 | 1017.7 |
| 20260906104149 | 54 | 7 | 10.0 | 11.0 | 0.00 | 0.00 | 0.00 | 98 | 1017.6 |
| 20260906103647 | 54 | 1 | 8.0 | 10.0 | 0.00 | 0.00 | 0.00 | 98 | 1018.1 |
| 20260906103143 | 53 | 353 | 6.0 | 7.0 | 0.00 | 0.00 | 0.00 | 98 | 1018.2 |
| 20260906102637 | 53 | 342 | 7.0 | 9.0 | 0.00 | 0.00 | 0.00 | 98 | 1018.2 |
| 20260906102132 | 54 | 17 | 10.0 | 13.0 | 0.00 | 0.00 | 0.00 | 98 | 1018.4 |
| 20260906101631 | 54 | 329 | 11.0 | 13.0 | 0.00 | 0.00 | 0.00 | 98 | 1018.2 |
| 20260906101131 | 54 | 345 | 9.0 | 11.0 | 0.00 | 0.00 | 0.00 | 98 | 1018.1 |
| 20260906100627 | 54 | 318 | 11.0 | 11.0 | 0.00 | 0.00 | 0.00 | 98 | 1018.2 |
| 20260906100122 | 54 | 351 | 12.0 | 14.0 | 0.00 | 0.00 | 0.00 | 98 | 1018.2 |
| 20260906095621 | 54 | 333 | 12.0 | 14.0 | 0.00 | 0.00 | 0.00 | 98 | 1018.0 |
| 20260906095117 | 54 | 8 | 12.0 | 15.0 | 0.00 | 0.00 | 0.00 | 98 | 1017.9 |
| 20260906094616 | 54 | 345 | 12.0 | 15.0 | 0.00 | 0.00 | 0.00 | 98 | 1018.1 |
| 20260906094112 | 54 | 358 | 13.0 | 15.0 | 0.00 | 0.00 | 0.00 | 98 | 1018.2 |
| 20260906093608 | 54 | 353 | 14.0 | 16.0 | 0.00 | 0.00 | 0.00 | 98 | 1018.2 |
| 20260906093102 | 54 | 358 | 10.0 | 11.0 | 0.00 | 0.00 | 0.00 | 98 | 1018.4 |
| 20260906092557 | 54 | 336 | 14.0 | 16.0 | 0.00 | 0.00 | 0.00 | 98 | 1018.4 |
| 20260906092053 | 54 | 326 | 10.0 | 13.0 | 0.00 | 0.00 | 0.00 | 98 | 1018.4 |
| 20260906091548 | 54 | 358 | 13.0 | 15.0 | 0.00 | 0.00 | 0.00 | 98 | 1018.5 |
| 20260906091045 | 54 | 358 | 13.0 | 15.0 | 0.00 | 0.00 | 0.00 | 98 | 1018.7 |
| 20260906090545 | 54 | 1 | 15.0 | 17.0 | 0.00 | 0.00 | 0.00 | 98 | 1018.6 |
| 20260906090040 | 54 | 1 | 13.0 | 14.0 | 0.00 | 0.00 | 0.00 | 98 | 1018.7 |
| 20260906085539 | 54 | 9 | 12.0 | 15.0 | 0.00 | 0.00 | 0.00 | 98 | 1019.0 |
| 20260906085038 | 54 | 357 | 14.0 | 16.0 | 0.00 | 0.00 | 0.00 | 98 | 1018.6 |
| 20260906084533 | 54 | 357 | 11.0 | 13.0 | 0.00 | 0.00 | 0.00 | 98 | 1018.8 |
| 20260906084032 | 54 | 311 | 15.0 | 17.0 | 0.00 | 0.00 | 0.00 | 98 | 1019.1 |
| 20260906083528 | 54 | 19 | 13.0 | 15.0 | 0.00 | 0.00 | 0.00 | 98 | 1018.8 |
| 20260906083028 | 54 | 358 | 14.0 | 15.0 | 0.00 | 0.00 | 0.00 | 98 | 1018.8 |
| 20260906082523 | 54 | 340 | 15.0 | 17.0 | 0.00 | 0.00 | 0.00 | 97 | 1018.8 |
| 20260906082019 | 54 | 339 | 10.0 | 10.0 | 0.00 | 0.00 | 0.00 | 97 | 1018.8 |
| 20260906081514 | 54 | 334 | 14.0 | 18.0 | 0.00 | 0.00 | 0.00 | 97 | 1018.8 |
| 20260906081010 | 54 | 348 | 12.0 | 14.0 | 0.00 | 0.00 | 0.00 | 97 | 1018.8 |
| 20260906080506 | 54 | 9 | 13.0 | 15.0 | 0.00 | 0.00 | 0.00 | 96 | 1019.1 |
| 20260906080002 | 54 | 355 | 14.0 | 17.0 | 0.00 | 0.00 | 0.00 | 96 | 1018.8 |
| 20260906075456 | 54 | 6 | 13.0 | 15.0 | 0.00 | 0.00 | 0.00 | 96 | 1018.8 |
| 20260906074951 | 54 | 355 | 12.0 | 14.0 | 0.00 | 0.00 | 0.00 | 96 | 1019.0 |
| 20260906074451 | 54 | 10 | 14.0 | 16.0 | 0.00 | 0.00 | 0.00 | 96 | 1019.2 |
| 20260906073949 | 54 | 1 | 15.0 | 17.0 | 0.00 | 0.00 | 0.00 | 96 | 1018.7 |
| 20260906073444 | 54 | 354 | 13.0 | 16.0 | 0.00 | 0.00 | 0.00 | 95 | 1019.1 |
| 20260906072941 | 54 | 2 | 11.0 | 13.0 | 0.00 | 0.00 | 0.00 | 95 | 1019.0 |
| 20260906072436 | 55 | 348 | 13.0 | 15.0 | 0.00 | 0.00 | 0.00 | 95 | 1019.1 |
| 20260906071931 | 55 | 8 | 14.0 | 16.0 | 0.00 | 0.00 | 0.00 | 94 | 1019.2 |
| 20260906071427 | 55 | 343 | 13.0 | 16.0 | 0.00 | 0.00 | 0.00 | 94 | 1019.3 |
| 20260906070923 | 55 | 350 | 13.0 | 15.0 | 0.00 | 0.00 | 0.00 | 94 | 1019.5 |
| 20260906070419 | 55 | 351 | 15.0 | 18.0 | 0.00 | 0.00 | 0.00 | 93 | 1019.4 |
| 20260906065915 | 55 | 347 | 17.0 | 20.0 | 0.00 | 0.00 | 0.00 | 92 | 1019.4 |
| 20260906065409 | 56 | 357 | 10.0 | 11.0 | 0.00 | 0.00 | 0.00 | 92 | 1019.8 |
| 20260906064904 | 56 | 350 | 16.0 | 17.0 | 0.00 | 0.00 | 0.00 | 92 | 1019.5 |
| 20260906064355 | 56 | 9 | 16.0 | 20.0 | 0.00 | 0.00 | 0.00 | 92 | 1019.7 |
| 20260906063854 | 56 | 2 | 15.0 | 18.0 | 0.00 | 0.00 | 0.00 | 93 | 1019.5 |
| 20260906063349 | 55 | 357 | 13.0 | 16.0 | 0.00 | 0.00 | 0.00 | 93 | 1019.8 |
| 20260906062844 | 55 | 359 | 11.0 | 16.0 | 0.00 | 0.00 | 0.00 | 93 | 1019.9 |
| 20260906062344 | 55 | 341 | 13.0 | 15.0 | 0.00 | 0.00 | 0.00 | 93 | 1020.1 |
| 20260906061839 | 55 | 338 | 12.0 | 14.0 | 0.00 | 0.00 | 0.00 | 93 | 1019.9 |
| 20260906061330 | 55 | 347 | 12.0 | 15.0 | 0.00 | 0.00 | 0.00 | 94 | 1019.6 |
| 20260906060824 | 55 | 12 | 12.0 | 15.0 | 0.00 | 0.00 | 0.00 | 94 | 1019.8 |
| 20260906060323 | 55 | 337 | 11.0 | 13.0 | 0.00 | 0.00 | 0.00 | 94 | 1019.8 |
| 20260906055818 | 55 | 327 | 11.0 | 13.0 | 0.00 | 0.09 | 0.09 | 94 | 1019.6 |
| 20260906055314 | 55 | 353 | 12.0 | 14.0 | 0.00 | 0.09 | 0.09 | 93 | 1019.6 |
| 20260906054809 | 55 | 3 | 12.0 | 14.0 | 0.00 | 0.09 | 0.09 | 93 | 1019.5 |
| 20260906054304 | 55 | 345 | 13.0 | 15.0 | 0.00 | 0.09 | 0.09 | 93 | 1019.6 |
| 20260906053801 | 55 | 337 | 12.0 | 13.0 | 0.00 | 0.09 | 0.09 | 93 | 1019.5 |
| 20260906053256 | 55 | 9 | 15.0 | 17.0 | 0.12 | 0.09 | 0.09 | 93 | 1019.4 |
| 20260906052750 | 55 | 352 | 13.0 | 15.0 | 0.24 | 0.09 | 0.09 | 93 | 1019.7 |
| 20260906052247 | 55 | 3 | 15.0 | 16.0 | 0.17 | 0.08 | 0.08 | 92 | 1019.7 |
| 20260906051743 | 56 | 4 | 13.0 | 15.0 | 0.00 | 0.05 | 0.05 | 91 | 1019.1 |
| 20260906051237 | 56 | 333 | 11.0 | 11.0 | 0.00 | 0.05 | 0.05 | 91 | 1020.5 |
| 20260906050733 | 56 | 295 | 9.0 | 11.0 | 0.00 | 0.05 | 0.05 | 91 | 1020.8 |
| 20260906050228 | 55 | 336 | 9.0 | 9.0 | 0.00 | 0.05 | 0.05 | 91 | 1020.2 |
| 20260906045726 | 55 | 353 | 10.0 | 10.0 | 0.00 | 0.05 | 0.05 | 92 | 1019.7 |
| 20260906045222 | 55 | 336 | 9.0 | 11.0 | 0.00 | 0.05 | 0.05 | 92 | 1019.6 |
| 20260906044717 | 55 | 340 | 11.0 | 13.0 | 0.00 | 0.05 | 0.05 | 92 | 1019.4 |
| 20260906044212 | 55 | 331 | 11.0 | 16.0 | 0.00 | 0.05 | 0.05 | 92 | 1019.4 |
| 20260906043709 | 55 | 338 | 12.0 | 16.0 | 0.00 | 0.05 | 0.05 | 92 | 1019.2 |
| 20260906043204 | 55 | 343 | 14.0 | 15.0 | 0.00 | 0.05 | 0.05 | 92 | 1019.1 |
| 20260906042703 | 55 | 339 | 13.0 | 16.0 | 0.00 | 0.05 | 0.05 | 91 | 1019.1 |
| 20260906042156 | 56 | 358 | 13.0 | 14.0 | 0.00 | 0.05 | 0.05 | 91 | 1019.1 |
| 20260906041652 | 56 | 351 | 16.0 | 18.0 | 0.00 | 0.05 | 0.05 | 89 | 1018.8 |
| 20260906041147 | 56 | 349 | 14.0 | 17.0 | 0.00 | 0.05 | 0.05 | 90 | 1019.0 |
| 20260906040642 | 56 | 8 | 14.0 | 18.0 | 0.00 | 0.05 | 0.05 | 89 | 1018.8 |
| 20260906040138 | 56 | 354 | 17.0 | 20.0 | 0.12 | 0.05 | 0.05 | 89 | 1019.1 |
| 20260906035633 | 56 | 346 | 12.0 | 14.0 | 0.19 | 0.05 | 0.05 | 88 | 1019.5 |
| 20260906035130 | 57 | 359 | 22.0 | 24.0 | 0.07 | 0.03 | 0.03 | 85 | 1019.1 |
| 20260906034629 | 59 | 321 | 11.0 | 14.0 | 0.00 | 0.02 | 0.02 | 76 | 1020.6 |
| 20260906034124 | 59 | 313 | 11.0 | 11.0 | 0.00 | 0.02 | 0.02 | 77 | 1020.6 |
| 20260906033620 | 58 | 318 | 11.0 | 13.0 | 0.00 | 0.02 | 0.02 | 77 | 1020.3 |
| 20260906033120 | 58 | 319 | 11.0 | 11.0 | 0.00 | 0.02 | 0.02 | 77 | 1019.5 |
| 20260906032617 | 58 | 340 | 12.0 | 13.0 | 0.00 | 0.02 | 0.02 | 78 | 1018.7 |
| 20260906032116 | 58 | 331 | 12.0 | 14.0 | 0.00 | 0.02 | 0.02 | 78 | 1018.7 |
| 20260906031612 | 58 | 337 | 14.0 | 16.0 | 0.00 | 0.02 | 0.02 | 77 | 1018.8 |
| 20260906031107 | 57 | 358 | 13.0 | 16.0 | 0.00 | 0.02 | 0.02 | 77 | 1018.8 |
| 20260906030606 | 57 | 355 | 12.0 | 14.0 | 0.00 | 0.02 | 0.02 | 78 | 1018.7 |
| 20260906030101 | 57 | 15 | 11.0 | 14.0 | 0.00 | 0.02 | 0.02 | 77 | 1018.6 |
| 20260906025555 | 57 | 335 | 12.0 | 15.0 | 0.00 | 0.02 | 0.02 | 77 | 1018.1 |
| 20260906025054 | 58 | 357 | 15.0 | 17.0 | 0.00 | 0.02 | 0.02 | 77 | 1018.4 |
| 20260906024549 | 58 | 0 | 14.0 | 16.0 | 0.00 | 0.02 | 0.02 | 76 | 1018.2 |
| 20260906024044 | 58 | 11 | 12.0 | 14.0 | 0.00 | 0.02 | 0.02 | 76 | 1018.3 |
| 20260906023540 | 58 | 0 | 10.0 | 11.0 | 0.00 | 0.02 | 0.02 | 75 | 1018.3 |
| 20260906023034 | 58 | 348 | 12.0 | 16.0 | 0.00 | 0.02 | 0.02 | 74 | 1018.3 |
| 20260906022530 | 59 | 7 | 12.0 | 14.0 | 0.00 | 0.02 | 0.02 | 74 | 1018.3 |
| 20260906022025 | 59 | 9 | 15.0 | 17.0 | 0.00 | 0.02 | 0.02 | 73 | 1018.1 |
| 20260906021520 | 59 | 7 | 12.0 | 13.0 | 0.00 | 0.02 | 0.02 | 73 | 1018.3 |
| 20260906021014 | 59 | 5 | 11.0 | 15.0 | 0.00 | 0.02 | 0.02 | 72 | 1018.2 |
| 20260906020514 | 60 | 0 | 11.0 | 13.0 | 0.00 | 0.02 | 0.02 | 72 | 1018.3 |
| 20260906020014 | 60 | 352 | 11.0 | 14.0 | 0.00 | 0.02 | 0.02 | 71 | 1018.4 |
| 20260906015513 | 60 | 354 | 15.0 | 17.0 | 0.00 | 0.02 | 0.02 | 71 | 1018.3 |
| 20260906015012 | 60 | 0 | 14.0 | 16.0 | 0.00 | 0.02 | 0.02 | 70 | 1018.2 |
| 20260906014507 | 60 | 7 | 12.0 | 15.0 | 0.00 | 0.02 | 0.02 | 70 | 1018.3 |
| 20260906014003 | 61 | 10 | 15.0 | 18.0 | 0.00 | 0.02 | 0.02 | 70 | 1018.1 |
| 20260906013458 | 61 | 15 | 15.0 | 16.0 | 0.00 | 0.02 | 0.02 | 70 | 1018.1 |
| 20260906012948 | 61 | 27 | 11.0 | 13.0 | 0.00 | 0.02 | 0.02 | 69 | 1018.2 |
| 20260906012443 | 61 | 353 | 13.0 | 15.0 | 0.00 | 0.02 | 0.02 | 68 | 1017.6 |
| 20260906011942 | 62 | 1 | 12.0 | 14.0 | 0.00 | 0.02 | 0.02 | 68 | 1018.0 |
| 20260906011438 | 62 | 21 | 16.0 | 20.0 | 0.00 | 0.02 | 0.02 | 68 | 1017.6 |
| 20260906010933 | 62 | 8 | 17.0 | 18.0 | 0.00 | 0.02 | 0.02 | 68 | 1017.9 |
| 20260906010428 | 62 | 4 | 15.0 | 17.0 | 0.00 | 0.02 | 0.02 | 67 | 1017.7 |
| 20260906005925 | 63 | 0 | 16.0 | 21.0 | 0.00 | 0.02 | 0.02 | 66 | 1017.6 |
| 20260906005424 | 63 | 1 | 17.0 | 20.0 | 0.00 | 0.02 | 0.02 | 65 | 1017.9 |
| 20260906004922 | 64 | 346 | 15.0 | 20.0 | 0.00 | 0.02 | 0.02 | 65 | 1017.9 |
| 20260906004417 | 64 | 5 | 14.0 | 16.0 | 0.00 | 0.02 | 0.02 | 64 | 1018.0 |
| 20260906003913 | 65 | 345 | 16.0 | 17.0 | 0.00 | 0.02 | 0.02 | 62 | 1017.9 |
| 20260906003408 | 65 | 347 | 16.0 | 18.0 | 0.00 | 0.02 | 0.02 | 61 | 1017.7 |
| 20260906002902 | 66 | 1 | 13.0 | 15.0 | 0.00 | 0.02 | 0.02 | 60 | 1017.7 |
| 20260906002401 | 66 | 346 | 17.0 | 18.0 | 0.00 | 0.02 | 0.02 | 61 | 1017.6 |
| 20260906001852 | 66 | 12 | 17.0 | 21.0 | 0.00 | 0.02 | 0.02 | 61 | 1018.0 |
| 20260906001348 | 66 | 350 | 16.0 | 22.0 | 0.00 | 0.02 | 0.02 | 60 | 1018.3 |
| 20260906000843 | 66 | 20 | 15.0 | 17.0 | 0.00 | 0.02 | 0.02 | 60 | 1018.2 |
| 20260906000343 | 66 | 353 | 13.0 | 16.0 | 0.00 | 0.02 | 0.02 | 60 | 1018.2 |
| 20260905235843 | 66 | 355 | 13.0 | 15.0 | 0.00 | 0.02 | 0.02 | 61 | 1018.4 |
| 20260905235337 | 66 | 347 | 15.0 | 18.0 | 0.00 | 0.02 | 0.02 | 59 | 1018.0 |
| 20260905234833 | 66 | 344 | 11.0 | 14.0 | 0.00 | 0.02 | 0.02 | 60 | 1018.0 |
| 20260905234328 | 67 | 353 | 15.0 | 16.0 | 0.00 | 0.02 | 0.02 | 59 | 1018.1 |
| 20260905233823 | 67 | 358 | 15.0 | 16.0 | 0.00 | 0.02 | 0.02 | 59 | 1018.3 |
| 20260905233318 | 67 | 355 | 10.0 | 10.0 | 0.00 | 0.02 | 0.02 | 58 | 1018.2 |
| 20260905232817 | 67 | 1 | 15.0 | 17.0 | 0.00 | 0.02 | 0.02 | 58 | 1018.2 |
| 20260905232314 | 67 | 359 | 13.0 | 16.0 | 0.00 | 0.02 | 0.02 | 58 | 1018.0 |
| 20260905231809 | 68 | 341 | 13.0 | 15.0 | 0.00 | 0.02 | 0.02 | 58 | 1018.0 |
| 20260905231304 | 68 | 359 | 15.0 | 17.0 | 0.00 | 0.02 | 0.02 | 56 | 1018.2 |
| 20260905230800 | 68 | 349 | 14.0 | 17.0 | 0.00 | 0.02 | 0.02 | 57 | 1017.9 |
| 20260905230258 | 68 | 358 | 13.0 | 15.0 | 0.00 | 0.02 | 0.02 | 55 | 1018.1 |
| 20260905225758 | 68 | 355 | 13.0 | 15.0 | 0.00 | 0.02 | 0.02 | 56 | 1018.0 |
| 20260905225253 | 68 | 4 | 11.0 | 14.0 | 0.00 | 0.02 | 0.02 | 56 | 1018.0 |